SCP
0 0 0 0 0 0 0 0 0 0 0 0 0 0 0 0 0 0 0 0 0 0 0 0 0 0 -0 0 0 0 0 0 0 0 0 0 0 0 0 0 0 0 0 0 0 0 0 0 0 0 0 -0 -0 0
0 0 0 0 0 0 0 0 0 0 0 0 0 0 0 0 0 0 0 0 0 0 0 0 0 -0 -0 -0 0 0 0 -0 -0 0 0 0 0 0 0 0 0 0 0 0 0 0 0 -0 -0 0 -0 -0 -0 0
0 0 0 0 0 0 0 0 0 0 0 0 0 0 0 0 0 0 0 0 0 0 0 0 0 0 0 -0 -0 0 0 0 0 0 0 0 0 0 0 0 0 0 0 0 0 0 -0 -0 -0 -0 -0 -0 -0 -0
0 0 0 0 0 0 0 0 0 0 0 0 0 0 0 0 0 0 0 0 0 0 0 0 0 0 -0 -0 -0 0 0 0 0 0 0 0 0 0 0 0 0 0 0 0 0 0 0 -0 -0 -0 -0 -0 -0 -0
0 0 0 0 0 0 0 0 0 0 0 0 0 0 0 0 0 0 0 0 0 0 0 0 0 0 -0 0 -0 0 -0 0 0 0 -0 0 0 0 0 0 0 0 0 0 0 0 0 0 0 0 -0 0 0 0
0 0 0 0 0 0 0 0 0 0 0 0 0 0 0 0 0 0 0 0 0 0 0 0 0 0 -0 -0 -0 -0 -0 -0 -0 0 0 0 0 0 0 0 0 0 0 0 0 0 0 0 0 0 -0 0 0 0
0 0 0 0 0 0 0 0 0 0 0 0 0 0 0 0 0 0 0 0 0 0 0 0 0 0 -0 0 0 -0 -0 -0 -0 0 0 0 0 0 0 0 0 0 0 0 0 0 0 0 0 0 -0 -0 0 0
0 0 0 0 0 0 0 0 0 0 0 0 0 0 0 0 0 0 0 0 0 0 0 0 0 0 -0 -0 -0 -0 -0 -0 -0 0 0 0 0 0 0 0 0 0 0 0 0 0 0 0 0 0 0 0 0 0
0 0 0 0 0 0 0 0 0 0 0 0 -0 -0 0 0 0 0 0 0 0 0 0 0 0 0 -0 -0 -0 -0 -0 -0 -0 0 0 0 0 0 0 0 0 0 0 0 0 0 0 0 0 0 0 0 0 0
0 0 0 0 0 0 0 0 0 0 0 0 0 0 0 0 0 0 0 0 0 0 0 0 0 0 0 -0 0 -0 0 -0 -0 -0 0 0 0 0 0 0 0 0 0 0 0 0 0 0 0 0 0 0 0 0
0 0 0 0 0 0 0 0 0 0 0 0 0 0 0 0 0 0 0 0 0 0 0 0 0 0 -0 0 0 -0 -0 -0 -0 0 0 0 0 0 0 0 0 0 0 0 0 0 0 0 0 0 0 0 0 0
0 0 0 0 0 0 0 0 0 0 0 0 0 0 0 0 0 0 -0 -0 0 0 0 0 0 -0 -0 -0 0 -0 -0 0 0 0 0 0 0 0 0 0 0 0 0 0 0 0 0 0 0 0 0 0 0 0
0 0 0 0 0 0 0 0 0 0 0 0 0 0 0 0 0 0 0 -0 0 0 0 0 -0 -0 0 -0 0 -0 0 0 0 0 0 0 0 0 0 0 0 0 0 0 0 0 0 0 0 0 0 0 0 0
0 0 0 0 0 0 0 0 0 0 0 0 0 0 0 0 0 0 0 0 0 0 0 0 0 -0 -0 -0 -0 -0 0 -0 0 0 0 0 0 0 0 0 0 0 0 0 0 0 0 0 0 -0 0 0 0 0
0 0 0 0 0 0 0 0 0 0 0 0 0 0 0 0 0 0 0 0 0 0 0 0 -0 -0 -0 -0 -0 -0 0 0 0 0 0 0 0 0 0 0 0 0 0 0 0 0 0 0 0 0 0 0 0 0
0 0 0 0 0 0 0 0 0 0 0 0 0 0 -0 0 0 -0 0 0 0 0 0 0 0 0 -0 -0 0 -0 0 0 0 0 0 0 -0 0 0 0 0 -0 -0 -0 0 0 0 0 0 0 0 0 0 0
0 0 0 0 0 0 0 0 0 0 0 0 0 0 0 -0 0 0 0 0 0 0 0 0 0 0 0 0 0 -0 -0 0 0 0 0 0 0 0 -0 -0 -0 0 0 -0 -0 -0 -0 0 0 0 0 0 -0 -0
0 0 0 0 0 0 0 0 0 0 0 0 0 0 0 0 0 0 0 0 0 0 0 0 -0 0 0 0 0 -0 -0 0 0 0 0 0 0 -0 -0 0 0 0 0 0 0 0 0 0 0 -0 -0 -0 0 -0
0 0 0 0 0 0 0 0 0 0 0 0 0 0 0 -0 0 0 0 0 0 0 0 0 0 0 0 -0 -0 -0 0 0 0 0 0 0 0 0 0 0 0 0 0 0 0 -0 -0 0 -0 -0 -0 0 -0 -0
0 0 0 0 0 0 0 0 0 0 0 0 0 0 0 -0 -0 0 0 0 0 0 0 0 0 0 -0 -0 -0 -0 0 0 0 0 0 0 0 0 0 0 0 0 0 0 0 0 0 0 -0 -0 -0 -0 0 0
0 0 0 0 0 0 0 0 0 0 0 0 0 0 0 0 0 0 0 0 0 0 0 0 0 -0 0 0 0 0 0 0 0 0 0 0 0 0 0 0 0 0 0 -0 0 0 0 -0 -0 -0 -0 -0 -0 0
0 0 0 0 0 0 0 0 0 0 0 0 -0 0 -0 0 0 0 0 0 0 0 0 0 0 0 0 0 0 0 0 0 0 0 0 0 0 0 0 0 0 0 -0 -0 -0 0 0 0 -0 0 0 -0 -0 0
0 0 0 0 0 0 0 0 0 0 0 0 0 0 0 0 0 0 0 0 0 0 0 0 0 0 0 0 0 0 0 0 0 0 0 0 0 0 0 0 0 0 -0 -0 -0 0 0 -0 0 0 0 0 0 0
0 0 0 0 0 0 0 0 0 -0 0 0 0 0 0 0 0 0 0 0 -0 0 0 0 0 0 0 0 0 0 0 0 0 0 0 0 0 0 0 0 0 0 0 -0 -0 0 0 0 0 0 0 0 0 0
0 0 0 0 0 0 -0 -0 -0 -0 -0 0 0 0 0 0 0 0 0 0 0 0 0 0 0 0 0 0 0 0 0 0 0 0 0 0 0 0 0 0 -0 0 0 0 0 0 0 0 0 0 0 0 0 0
0 0 0 0 0 -0 -0 -0 0 -0 -0 -0 0 0 0 0 0 0 0 0 0 0 0 0 0 0 0 0 0 0 0 0 0 0 0 0 0 0 -0 -0 -0 0 0 0 0 0 0 0 0 0 0 0 0 0
0 0 0 -0 -0 -0 -0 -0 -0 0 0 -0 -0 0 0 0 0 0 0 0 0 -0 -0 -0 -0 -0 0 0 0 0 0 0 0 0 0 0 0 0 0 0 0 0 0 0 0 0 0 0 0 0 0 0 0 0
0 0 0 -0 -0 0 0 0 0 0 0 0 0 0 0 0 0 0 -0 -0 -0 -0 -0 -0 0 0 0 -0 -0 -0 0 0 0 0 0 0 0 0 0 0 0 0 0 0 0 0 0 0 0 0 0 0 0 0
0 0 0 0 0 0 0 0 0 0 -0 -0 0 0 0 0 0 -0 -0 -0 -0 0 0 0 0 -0 -0 0 0 0 0 0 0 0 0 0 0 0 0 0 0 0 0 0 0 0 0 0 0 0 0 0 0 0
0 0 0 0 0 0 0 0 0 0 0 0 0 0 0 0 0 0 0 0 0 0 0 0 0 0 0 0 0 0 0 0 0 0 0 0 0 0 0 0 0 0 0 0 0 0 0 0 0 0 0 0 0 0
0 0 0 0 0 0 0 0 0 0 0 0 0 -0 0 0 0 0 0 0 0 0 0 0 0 0 0 0 0 0 0 0 0 0 0 0 0 0 0 0 0 0 0 0 0 0 0 0 0 0 0 0 0 0
0 0 0 0 0 0 0 0 0 0 0 0 0 0 0 0 0 0 0 0 0 0 0 0 0 0 0 0 0 0 0 0 0 0 0 0 0 -0 -0 0 0 0 0 0 0 0 0 0 0 0 0 0 0 0
0 0 0 0 0 0 0 0 0 0 0 0 0 0 0 0 0 0 0 0 0 0 0 0 0 0 0 0 0 0 0 0 0 0 0 0 0 0 0 0 0 0 0 0 0 0 0 0 0 0 0 0 0 0
Wind_Speed_500mb
63 62 62 61 57 49 45 41 42 46 44 43 33 32 33 38 35 31 28 6 16 20 69 30 17 22 43 35 6 35 22 3 7 12 8 8 6 8 9 10 10 10 11 7 8 8 12 20 16 4 23 57 63 59
58 57 57 58 56 49 44 36 43 42 46 38 31 29 32 36 34 26 34 21 20 31 60 77 51 29 37 37 36 10 15 21 6 5 4 6 5 7 12 7 11 6 8 8 9 8 16 28 28 52 62 76 78 73
54 55 56 56 54 51 38 36 41 44 42 36 27 29 33 35 34 28 35 32 28 28 52 13 14 42 30 12 19 15 9 6 8 6 3 4 7 6 8 7 9 10 12 7 7 22 26 51 63 65 74 72 72 80
54 55 55 54 49 44 36 38 41 37 37 31 26 30 34 36 36 35 35 30 13 18 12 21 40 23 21 10 18 22 34 22 7 4 3 3 4 6 5 6 7 7 20 16 8 15 37 42 56 75 78 84 81 79
55 55 54 51 44 34 35 39 39 38 37 28 28 31 35 37 35 35 19 1 9 5 9 32 42 12 19 17 13 23 12 6 2 3 1 3 5 6 6 3 6 18 8 7 6 16 37 28 46 71 83 75 82 96
53 52 51 44 35 30 37 37 34 36 28 26 29 32 35 35 32 29 2 3 5 13 11 7 26 18 17 9 22 28 9 6 4 3 4 7 8 7 6 6 18 40 37 26 10 53 58 51 55 69 89 77 75 84
49 47 46 37 31 33 35 36 36 31 25 27 30 33 31 28 26 15 5 5 7 9 9 11 17 18 24 14 4 13 12 8 9 4 4 6 11 11 4 7 25 34 30 39 45 47 48 46 56 67 88 82 88 89
42 41 39 32 33 38 38 33 32 25 26 27 32 28 22 23 19 6 5 7 14 8 10 5 9 16 9 4 4 14 8 9 13 10 9 7 9 12 5 7 17 29 32 21 19 44 65 68 71 73 77 79 74 71
39 34 30 29 34 36 31 27 23 25 24 24 22 23 10 5 4 8 14 13 11 8 7 6 4 7 13 3 4 5 7 2 3 3 5 6 5 6 11 15 17 15 15 42 62 65 66 67 67 72 76 63 59 55
35 30 27 31 33 28 25 21 24 23 18 16 11 3 3 3 8 18 6 7 14 10 10 8 10 8 11 3 4 6 4 3 1 4 6 5 4 14 14 16 22 30 40 48 63 51 52 60 61 53 46 52 59 70
32 27 26 27 26 22 17 19 22 22 17 11 5 7 7 12 10 5 6 10 11 7 13 17 23 11 22 4 3 2 4 3 4 4 4 4 4 9 15 25 23 38 37 44 60 62 64 64 49 59 60 63 64 64
23 19 21 18 18 14 15 16 18 18 14 9 9 11 4 6 9 5 5 7 8 8 10 9 16 28 9 7 8 4 1 4 3 2 5 5 5 14 27 28 39 51 53 47 39 41 39 40 54 59 57 57 55 53
21 21 19 15 14 13 12 15 17 13 4 3 4 5 4 4 4 7 6 5 6 7 8 21 12 8 4 7 8 4 2 2 1 6 5 4 11 35 45 47 58 58 47 36 32 33 44 48 49 50 56 53 49 48
22 20 15 15 13 10 12 15 11 5 3 2 5 7 7 6 8 5 9 9 11 11 18 23 16 5 6 4 5 2 3 2 4 5 5 5 18 48 44 44 42 30 26 27 49 50 52 53 54 51 51 46 48 55
20 15 13 12 11 12 13 11 9 8 6 6 8 7 9 17 8 10 15 7 11 14 19 20 11 7 5 4 4 4 1 4 3 5 10 14 35 42 46 42 39 40 40 39 46 49 47 47 47 47 45 48 49 47
19 15 12 12 7 7 9 9 5 5 2 7 12 8 21 12 12 9 9 12 11 17 20 5 3 6 5 2 2 4 1 2 4 5 43 44 41 35 43 45 45 46 41 39 40 41 46 48 51 48 47 44 39 37
19 15 13 9 4 5 6 8 7 6 8 9 16 24 40 36 29 15 7 11 16 14 2 2 5 4 4 5 4 4 2 4 18 44 46 44 43 34 41 47 47 48 45 40 41 45 47 50 49 45 43 39 43 39
25 19 14 5 5 1 6 8 8 9 13 19 14 22 19 27 30 17 9 10 9 3 2 2 7 6 2 1 3 4 11 31 38 41 36 40 31 30 46 50 54 53 51 46 42 46 47 48 45 45 44 42 43 39
26 21 12 8 5 8 6 8 9 9 16 21 28 35 40 35 32 19 12 12 5 2 7 4 2 3 3 2 7 16 42 49 44 33 42 37 25 53 56 57 57 54 51 47 46 48 47 44 47 46 45 45 44 37
18 16 14 10 17 10 6 8 14 12 11 9 25 24 22 24 30 22 10 3 7 3 1 2 4 2 5 6 10 12 38 59 56 40 33 27 41 43 52 55 55 51 46 41 39 42 41 41 39 39 38 36 37 38
20 10 10 10 17 6 6 10 12 12 13 11 21 21 16 11 21 16 11 11 6 4 4 4 7 5 3 6 6 7 27 54 68 49 46 37 46 36 44 44 45 45 41 47 47 43 37 35 37 36 33 32 31 35
18 13 14 20 8 10 13 16 12 15 10 15 20 10 10 5 10 9 9 4 2 2 7 8 7 5 8 13 9 5 22 48 54 53 44 43 45 39 50 48 43 38 45 42 42 43 39 33 34 35 32 31 33 36
20 20 7 10 8 8 12 13 9 8 4 7 6 5 4 6 10 16 4 3 3 6 5 11 10 8 7 13 15 9 21 43 52 53 57 44 40 47 38 50 40 39 38 35 34 34 38 39 35 35 38 38 38 40
21 11 8 9 16 8 9 10 11 9 8 5 4 4 6 12 13 3 4 5 5 7 11 13 11 10 11 16 16 16 24 33 39 41 46 60 48 54 46 42 47 24 30 36 33 32 28 45 42 43 42 44 41 41
8 9 7 9 10 8 8 7 10 6 7 9 7 1 2 6 4 0 2 3 7 9 10 12 12 9 21 25 22 18 22 29 38 35 40 46 53 58 51 52 45 27 21 38 43 38 45 47 42 43 43 39 35 32
8 10 13 11 8 9 6 7 6 11 2 4 4 6 8 6 3 3 3 4 4 5 2 12 12 11 10 28 32 34 31 34 43 39 51 39 40 50 54 59 42 30 30 27 37 35 44 44 37 39 41 33 34 27
4 9 14 14 11 11 9 13 19 8 7 6 4 6 5 3 4 2 12 17 1 13 12 10 5 21 14 8 13 23 26 36 38 49 42 33 31 40 38 39 30 29 30 37 34 34 41 40 38 39 37 31 28 33
11 8 7 22 20 19 5 6 6 3 2 13 9 6 3 2 3 17 24 27 29 25 23 19 22 18 23 31 32 37 40 35 43 28 28 29 28 30 26 29 28 31 29 23 15 24 32 30 28 30 38 33 37 25
9 13 9 14 13 8 8 8 5 2 4 11 9 6 2 11 31 34 26 23 22 25 26 22 20 16 17 16 14 12 13 13 19 16 14 23 36 34 24 34 36 31 29 31 28 28 33 29 22 32 31 25 34 32
9 13 5 6 5 1 8 4 2 10 11 20 23 44 47 40 31 21 23 23 19 21 21 19 21 20 23 19 18 12 8 15 13 8 14 24 31 34 32 30 27 27 27 28 20 29 27 27 33 39 32 28 31 29
8 20 8 10 6 10 19 9 16 26 34 46 54 53 40 37 34 27 20 16 16 17 14 12 10 8 6 8 9 10 11 9 16 16 11 27 25 22 29 24 19 16 22 26 24 30 34 28 28 33 28 28 31 35
13 11 7 5 5 10 14 14 11 17 35 38 28 27 21 10 9 8 16 6 8 17 16 10 4 7 7 11 13 10 10 12 18 22 19 15 18 37 41 30 26 35 27 33 28 28 29 23 26 32 26 29 33 34
15 14 14 7 5 4 9 10 7 7 10 16 14 16 12 9 7 8 12 7 5 7 8 9 6 5 8 14 19 22 18 18 20 23 29 28 22 26 33 39 37 31 31 36 39 35 32 29 33 34 36 31 29 31
Wind_Direction_500mb
313 315 318 319 318 312 314 309 320 318 314 322 321 325 330 333 335 330 335 310 309 285 291 286 291 265 288 294 259 300 327 328 333 17 1 337 312 326 315 314 353 352 335 353 345 43 74 358 286 355 128 107 108 104
312 315 317 318 318 312 307 317 316 311 310 314 322 320 327 330 330 326 315 316 296 281 273 299 293 300 283 284 267 276 270 297 333 346 348 308 316 314 317 327 354 29 13 305 14 19 356 40 87 96 112 114 115 113
311 314 316 317 317 316 307 315 308 308 309 314 315 317 323 327 326 318 311 320 322 296 310 297 345 330 323 307 280 236 276 259 225 225 263 294 291 321 335 341 303 333 351 352 332 31 46 75 87 96 103 106 112 121
309 313 315 316 313 313 304 305 307 309 308 313 312 316 320 323 324 317 316 316 276 282 288 291 332 359 2 284 250 274 287 288 253 213 268 293 290 339 325 311 351 324 314 330 43 60 64 59 93 105 102 109 105 105
309 312 313 315 311 309 304 305 306 311 311 309 310 314 317 320 320 321 328 346 278 266 296 296 330 3 1 12 82 24 11 333 252 179 190 276 263 301 295 354 35 342 327 1 0 9 92 89 101 109 106 106 109 112
306 307 311 314 313 303 303 309 312 313 309 307 309 312 316 318 319 332 70 68 347 302 303 301 313 309 310 261 25 25 55 22 2 302 305 319 328 327 356 28 356 350 18 88 68 78 89 101 106 110 111 108 105 108
304 305 309 307 304 298 300 304 311 311 309 307 307 310 313 312 310 300 259 232 349 280 281 292 302 303 328 225 341 22 39 49 7 342 333 319 355 47 29 18 349 358 58 92 91 93 81 97 105 109 114 114 115 109
302 301 306 306 302 301 301 304 309 308 311 309 305 311 308 302 298 313 0 249 240 261 258 287 278 307 338 338 64 15 19 17 23 359 353 5 26 19 40 342 355 357 64 100 110 122 112 111 110 112 119 125 122 118
300 296 304 302 298 301 306 306 307 313 315 305 306 311 304 222 249 325 301 300 236 245 284 233 233 274 317 339 62 36 21 88 4 19 27 48 0 36 319 303 347 2 77 109 112 115 112 110 112 115 116 112 116 120
292 289 289 290 297 307 310 307 312 317 316 290 313 292 221 69 285 304 282 192 195 218 224 249 257 261 262 258 47 17 295 104 10 34 90 54 76 20 47 87 86 97 108 111 111 111 115 115 115 117 119 121 122 127
283 285 290 292 297 302 300 306 312 322 308 281 241 235 227 262 268 232 235 213 184 226 220 237 235 249 294 149 132 170 291 106 71 335 70 42 52 1 98 90 93 109 115 112 108 117 118 115 116 117 119 128 133 136
282 280 288 285 286 282 294 303 318 318 318 308 303 296 306 200 234 247 247 241 193 232 208 237 293 300 288 125 73 290 315 35 91 33 56 49 350 123 115 116 119 118 113 109 108 116 126 125 130 132 134 135 136 135
264 279 280 274 257 271 283 300 310 311 322 3 344 293 199 228 32 214 228 242 261 281 329 337 326 295 286 106 69 334 59 76 243 54 57 2 304 128 117 114 124 113 107 105 119 127 130 131 135 134 133 136 136 132
258 268 259 246 248 255 277 291 287 284 171 250 274 282 191 231 232 162 207 228 256 305 323 332 310 258 288 86 118 35 67 59 75 87 87 224 106 152 141 124 123 124 118 103 124 129 132 133 132 138 139 139 137 136
250 236 240 234 239 256 267 259 261 222 152 225 220 242 236 243 283 311 310 277 294 312 324 324 307 256 275 136 170 128 90 74 46 158 147 154 133 138 156 165 157 144 141 137 137 133 134 138 142 142 142 142 144 143
221 216 213 207 218 253 238 246 241 138 230 237 233 263 255 299 288 308 297 294 315 332 331 274 283 347 300 341 61 70 102 132 189 166 140 139 151 153 157 160 152 153 136 135 146 147 147 148 142 140 145 148 144 141
200 200 196 213 271 244 212 157 152 213 232 235 240 247 262 281 276 262 273 293 308 310 259 341 356 260 325 35 43 18 64 156 141 147 147 165 173 180 168 161 158 159 152 138 139 138 139 139 143 148 147 145 141 142
202 196 197 209 287 209 110 165 212 226 240 244 250 260 267 281 251 260 258 275 310 273 269 263 302 15 86 5 290 162 117 134 153 154 161 169 166 184 178 175 164 159 155 151 146 146 150 151 151 148 148 149 148 156
196 191 192 205 184 148 193 210 225 263 251 263 265 277 281 275 250 243 249 299 300 231 294 337 6 86 225 225 144 150 155 165 164 159 150 163 149 156 161 160 160 157 154 151 149 154 157 157 153 153 153 154 152 151
192 201 246 289 174 170 216 233 217 249 263 273 301 285 296 259 269 224 213 213 187 195 45 72 183 161 178 201 201 175 174 177 177 167 161 156 163 160 157 160 162 161 158 154 157 162 162 160 160 162 168 169 167 165
215 209 176 181 174 224 258 253 233 243 271 264 285 309 291 238 174 180 186 209 185 181 151 122 173 141 194 195 210 179 180 179 178 175 179 155 157 165 168 166 163 166 160 163 171 176 176 162 159 159 156 155 152 162
148 154 147 160 199 211 253 244 244 302 273 260 289 257 248 270 143 182 198 180 217 192 157 166 163 189 192 198 209 216 184 186 186 184 180 163 171 162 172 171 171 170 167 173 182 190 201 193 178 179 178 168 166 176
156 170 187 207 227 229 258 222 236 243 230 250 241 217 217 123 161 157 88 182 257 223 226 172 172 211 202 195 197 207 191 190 190 193 190 187 178 176 173 183 177 176 184 192 194 201 209 208 192 193 190 181 181 189
166 191 220 213 206 249 253 218 219 243 247 248 263 259 133 154 147 121 171 208 198 209 203 195 185 165 174 195 211 204 185 185 184 194 196 199 195 182 186 191 189 188 206 201 193 197 194 182 180 186 191 186 189 190
181 218 210 249 221 238 247 216 202 221 242 210 218 173 330 158 73 110 267 277 190 199 197 220 220 237 206 204 198 188 172 191 184 186 180 186 191 194 196 187 197 194 183 189 192 195 183 184 187 189 195 192 196 200
199 214 200 212 226 218 240 295 212 203 146 293 80 77 56 67 121 202 219 168 153 71 163 197 200 178 200 202 205 201 218 206 195 177 173 178 189 189 187 197 205 198 194 207 201 193 192 193 200 199 197 206 205 208
221 250 220 236 265 285 281 264 258 248 212 136 150 140 132 149 170 143 110 131 113 127 119 103 141 155 133 153 197 174 179 162 181 168 157 166 180 185 188 189 211 197 199 204 209 211 205 199 198 203 207 211 217 225
246 275 230 243 242 264 215 274 266 260 84 119 88 18 294 157 140 133 127 120 112 110 102 103 116 121 135 128 104 118 131 141 161 143 164 185 175 173 176 195 199 198 188 182 203 206 202 194 215 218 215 222 218 230
244 246 292 277 279 219 224 233 271 274 113 132 119 214 169 78 141 140 127 123 117 117 118 123 129 120 124 163 143 105 82 160 212 233 250 197 192 193 199 199 198 210 225 228 217 220 225 224 218 213 219 225 226 242
242 222 247 261 232 285 270 261 174 96 111 138 122 115 99 95 104 130 139 130 123 118 118 116 127 132 130 143 162 157 155 204 228 208 176 173 178 193 193 197 204 218 220 207 218 218 195 215 219 211 213 209 232 246
268 194 223 263 263 225 238 140 108 106 112 125 132 120 112 105 92 92 113 116 136 150 160 147 129 132 167 196 187 183 188 208 217 228 230 204 193 166 173 188 214 211 208 216 213 207 204 200 206 210 226 234 223 230
206 207 235 242 237 200 181 147 140 128 137 141 140 140 130 104 84 76 68 59 154 142 137 163 217 164 212 217 232 250 239 232 211 212 211 223 238 212 205 198 211 221 224 214 205 209 216 212 224 228 228 240 235 235
219 241 255 266 273 219 171 128 131 119 126 145 152 154 128 115 113 118 105 103 159 189 209 249 253 228 243 282 277 264 267 250 229 211 207 216 223 230 228 216 208 216 216 211 206 201 211 225 227 231 241 240 243 243
Wind_Speed_850mb
63 62 62 61 57 49 45 41 42 46 44 43 33 32 33 38 35 31 28 6 16 20 69 30 17 22 43 35 6 35 22 3 7 12 8 8 6 8 9 10 10 10 11 7 8 8 12 20 16 4 23 57 63 59
58 57 57 58 56 49 44 36 43 42 46 38 31 29 32 36 34 26 34 21 20 31 60 77 51 29 37 37 36 10 15 21 6 5 4 6 5 7 12 7 11 6 8 8 9 8 16 28 28 52 62 76 78 73
54 55 56 56 54 51 38 36 41 44 42 36 27 29 33 35 34 28 35 32 28 28 52 13 14 42 30 12 19 15 9 6 8 6 3 4 7 6 8 7 9 10 12 7 7 22 26 51 63 65 74 72 72 80
54 55 55 54 49 44 36 38 41 37 37 31 26 30 34 36 36 35 35 30 13 18 12 21 40 23 21 10 18 22 34 22 7 4 3 3 4 6 5 6 7 7 20 16 8 15 37 42 56 75 78 84 81 79
55 55 54 51 44 34 35 39 39 38 37 28 28 31 35 37 35 35 19 1 9 5 9 32 42 12 19 17 13 23 12 6 2 3 1 3 5 6 6 3 6 18 8 7 6 16 37 28 46 71 83 75 82 96
53 52 51 44 35 30 37 37 34 36 28 26 29 32 35 35 32 29 2 3 5 13 11 7 26 18 17 9 22 28 9 6 4 3 4 7 8 7 6 6 18 40 37 26 10 53 58 51 55 69 89 77 75 84
49 47 46 37 31 33 35 36 36 31 25 27 30 33 31 28 26 15 5 5 7 9 9 11 17 18 24 14 4 13 12 8 9 4 4 6 11 11 4 7 25 34 30 39 45 47 48 46 56 67 88 82 88 89
42 41 39 32 33 38 38 33 32 25 26 27 32 28 22 23 19 6 5 7 14 8 10 5 9 16 9 4 4 14 8 9 13 10 9 7 9 12 5 7 17 29 32 21 19 44 65 68 71 73 77 79 74 71
39 34 30 29 34 36 31 27 23 25 24 24 22 23 10 5 4 8 14 13 11 8 7 6 4 7 13 3 4 5 7 2 3 3 5 6 5 6 11 15 17 15 15 42 62 65 66 67 67 72 76 63 59 55
35 30 27 31 33 28 25 21 24 23 18 16 11 3 3 3 8 18 6 7 14 10 10 8 10 8 11 3 4 6 4 3 1 4 6 5 4 14 14 16 22 30 40 48 63 51 52 60 61 53 46 52 59 70
32 27 26 27 26 22 17 19 22 22 17 11 5 7 7 12 10 5 6 10 11 7 13 17 23 11 22 4 3 2 4 3 4 4 4 4 4 9 15 25 23 38 37 44 60 62 64 64 49 59 60 63 64 64
23 19 21 18 18 14 15 16 18 18 14 9 9 11 4 6 9 5 5 7 8 8 10 9 16 28 9 7 8 4 1 4 3 2 5 5 5 14 27 28 39 51 53 47 39 41 39 40 54 59 57 57 55 53
21 21 19 15 14 13 12 15 17 13 4 3 4 5 4 4 4 7 6 5 6 7 8 21 12 8 4 7 8 4 2 2 1 6 5 4 11 35 45 47 58 58 47 36 32 33 44 48 49 50 56 53 49 48
22 20 15 15 13 10 12 15 11 5 3 2 5 7 7 6 8 5 9 9 11 11 18 23 16 5 6 4 5 2 3 2 4 5 5 5 18 48 44 44 42 30 26 27 49 50 52 53 54 51 51 46 48 55
20 15 13 12 11 12 13 11 9 8 6 6 8 7 9 17 8 10 15 7 11 14 19 20 11 7 5 4 4 4 1 4 3 5 10 14 35 42 46 42 39 40 40 39 46 49 47 47 47 47 45 48 49 47
19 15 12 12 7 7 9 9 5 5 2 7 12 8 21 12 12 9 9 12 11 17 20 5 3 6 5 2 2 4 1 2 4 5 43 44 41 35 43 45 45 46 41 39 40 41 46 48 51 48 47 44 39 37
19 15 13 9 4 5 6 8 7 6 8 9 16 24 40 36 29 15 7 11 16 14 2 2 5 4 4 5 4 4 2 4 18 44 46 44 43 34 41 47 47 48 45 40 41 45 47 50 49 45 43 39 43 39
25 19 14 5 5 1 6 8 8 9 13 19 14 22 19 27 30 17 9 10 9 3 2 2 7 6 2 1 3 4 11 31 38 41 36 40 31 30 46 50 54 53 51 46 42 46 47 48 45 45 44 42 43 39
26 21 12 8 5 8 6 8 9 9 16 21 28 35 40 35 32 19 12 12 5 2 7 4 2 3 3 2 7 16 42 49 44 33 42 37 25 53 56 57 57 54 51 47 46 48 47 44 47 46 45 45 44 37
18 16 14 10 17 10 6 8 14 12 11 9 25 24 22 24 30 22 10 3 7 3 1 2 4 2 5 6 10 12 38 59 56 40 33 27 41 43 52 55 55 51 46 41 39 42 41 41 39 39 38 36 37 38
20 10 10 10 17 6 6 10 12 12 13 11 21 21 16 11 21 16 11 11 6 4 4 4 7 5 3 6 6 7 27 54 68 49 46 37 46 36 44 44 45 45 41 47 47 43 37 35 37 36 33 32 31 35
18 13 14 20 8 10 13 16 12 15 10 15 20 10 10 5 10 9 9 4 2 2 7 8 7 5 8 13 9 5 22 48 54 53 44 43 45 39 50 48 43 38 45 42 42 43 39 33 34 35 32 31 33 36
20 20 7 10 8 8 12 13 9 8 4 7 6 5 4 6 10 16 4 3 3 6 5 11 10 8 7 13 15 9 21 43 52 53 57 44 40 47 38 50 40 39 38 35 34 34 38 39 35 35 38 38 38 40
21 11 8 9 16 8 9 10 11 9 8 5 4 4 6 12 13 3 4 5 5 7 11 13 11 10 11 16 16 16 24 33 39 41 46 60 48 54 46 42 47 24 30 36 33 32 28 45 42 43 42 44 41 41
8 9 7 9 10 8 8 7 10 6 7 9 7 1 2 6 4 0 2 3 7 9 10 12 12 9 21 25 22 18 22 29 38 35 40 46 53 58 51 52 45 27 21 38 43 38 45 47 42 43 43 39 35 32
8 10 13 11 8 9 6 7 6 11 2 4 4 6 8 6 3 3 3 4 4 5 2 12 12 11 10 28 32 34 31 34 43 39 51 39 40 50 54 59 42 30 30 27 37 35 44 44 37 39 41 33 34 27
4 9 14 14 11 11 9 13 19 8 7 6 4 6 5 3 4 2 12 17 1 13 12 10 5 21 14 8 13 23 26 36 38 49 42 33 31 40 38 39 30 29 30 37 34 34 41 40 38 39 37 31 28 33
11 8 7 22 20 19 5 6 6 3 2 13 9 6 3 2 3 17 24 27 29 25 23 19 22 18 23 31 32 37 40 35 43 28 28 29 28 30 26 29 28 31 29 23 15 24 32 30 28 30 38 33 37 25
9 13 9 14 13 8 8 8 5 2 4 11 9 6 2 11 31 34 26 23 22 25 26 22 20 16 17 16 14 12 13 13 19 16 14 23 36 34 24 34 36 31 29 31 28 28 33 29 22 32 31 25 34 32
9 13 5 6 5 1 8 4 2 10 11 20 23 44 47 40 31 21 23 23 19 21 21 19 21 20 23 19 18 12 8 15 13 8 14 24 31 34 32 30 27 27 27 28 20 29 27 27 33 39 32 28 31 29
8 20 8 10 6 10 19 9 16 26 34 46 54 53 40 37 34 27 20 16 16 17 14 12 10 8 6 8 9 10 11 9 16 16 11 27 25 22 29 24 19 16 22 26 24 30 34 28 28 33 28 28 31 35
13 11 7 5 5 10 14 14 11 17 35 38 28 27 21 10 9 8 16 6 8 17 16 10 4 7 7 11 13 10 10 12 18 22 19 15 18 37 41 30 26 35 27 33 28 28 29 23 26 32 26 29 33 34
15 14 14 7 5 4 9 10 7 7 10 16 14 16 12 9 7 8 12 7 5 7 8 9 6 5 8 14 19 22 18 18 20 23 29 28 22 26 33 39 37 31 31 36 39 35 32 29 33 34 36 31 29 31
Wind_Direction_850mb
313 315 318 319 318 312 314 309 320 318 314 322 321 325 330 333 335 330 335 310 309 285 291 286 291 265 288 294 259 300 327 328 333 17 1 337 312 326 315 314 353 352 335 353 345 43 74 358 286 355 128 107 108 104
312 315 317 318 318 312 307 317 316 311 310 314 322 320 327 330 330 326 315 316 296 281 273 299 293 300 283 284 267 276 270 297 333 346 348 308 316 314 317 327 354 29 13 305 14 19 356 40 87 96 112 114 115 113
311 314 316 317 317 316 307 315 308 308 309 314 315 317 323 327 326 318 311 320 322 296 310 297 345 330 323 307 280 236 276 259 225 225 263 294 291 321 335 341 303 333 351 352 332 31 46 75 87 96 103 106 112 121
309 313 315 316 313 313 304 305 307 309 308 313 312 316 320 323 324 317 316 316 276 282 288 291 332 359 2 284 250 274 287 288 253 213 268 293 290 339 325 311 351 324 314 330 43 60 64 59 93 105 102 109 105 105
309 312 313 315 311 309 304 305 306 311 311 309 310 314 317 320 320 321 328 346 278 266 296 296 330 3 1 12 82 24 11 333 252 179 190 276 263 301 295 354 35 342 327 1 0 9 92 89 101 109 106 106 109 112
306 307 311 314 313 303 303 309 312 313 309 307 309 312 316 318 319 332 70 68 347 302 303 301 313 309 310 261 25 25 55 22 2 302 305 319 328 327 356 28 356 350 18 88 68 78 89 101 106 110 111 108 105 108
304 305 309 307 304 298 300 304 311 311 309 307 307 310 313 312 310 300 259 232 349 280 281 292 302 303 328 225 341 22 39 49 7 342 333 319 355 47 29 18 349 358 58 92 91 93 81 97 105 109 114 114 115 109
302 301 306 306 302 301 301 304 309 308 311 309 305 311 308 302 298 313 0 249 240 261 258 287 278 307 338 338 64 15 19 17 23 359 353 5 26 19 40 342 355 357 64 100 110 122 112 111 110 112 119 125 122 118
300 296 304 302 298 301 306 306 307 313 315 305 306 311 304 222 249 325 301 300 236 245 284 233 233 274 317 339 62 36 21 88 4 19 27 48 0 36 319 303 347 2 77 109 112 115 112 110 112 115 116 112 116 120
292 289 289 290 297 307 310 307 312 317 316 290 313 292 221 69 285 304 282 192 195 218 224 249 257 261 262 258 47 17 295 104 10 34 90 54 76 20 47 87 86 97 108 111 111 111 115 115 115 117 119 121 122 127
283 285 290 292 297 302 300 306 312 322 308 281 241 235 227 262 268 232 235 213 184 226 220 237 235 249 294 149 132 170 291 106 71 335 70 42 52 1 98 90 93 109 115 112 108 117 118 115 116 117 119 128 133 136
282 280 288 285 286 282 294 303 318 318 318 308 303 296 306 200 234 247 247 241 193 232 208 237 293 300 288 125 73 290 315 35 91 33 56 49 350 123 115 116 119 118 113 109 108 116 126 125 130 132 134 135 136 135
264 279 280 274 257 271 283 300 310 311 322 3 344 293 199 228 32 214 228 242 261 281 329 337 326 295 286 106 69 334 59 76 243 54 57 2 304 128 117 114 124 113 107 105 119 127 130 131 135 134 133 136 136 132
258 268 259 246 248 255 277 291 287 284 171 250 274 282 191 231 232 162 207 228 256 305 323 332 310 258 288 86 118 35 67 59 75 87 87 224 106 152 141 124 123 124 118 103 124 129 132 133 132 138 139 139 137 136
250 236 240 234 239 256 267 259 261 222 152 225 220 242 236 243 283 311 310 277 294 312 324 324 307 256 275 136 170 128 90 74 46 158 147 154 133 138 156 165 157 144 141 137 137 133 134 138 142 142 142 142 144 143
221 216 213 207 218 253 238 246 241 138 230 237 233 263 255 299 288 308 297 294 315 332 331 274 283 347 300 341 61 70 102 132 189 166 140 139 151 153 157 160 152 153 136 135 146 147 147 148 142 140 145 148 144 141
200 200 196 213 271 244 212 157 152 213 232 235 240 247 262 281 276 262 273 293 308 310 259 341 356 260 325 35 43 18 64 156 141 147 147 165 173 180 168 161 158 159 152 138 139 138 139 139 143 148 147 145 141 142
202 196 197 209 287 209 110 165 212 226 240 244 250 260 267 281 251 260 258 275 310 273 269 263 302 15 86 5 290 162 117 134 153 154 161 169 166 184 178 175 164 159 155 151 146 146 150 151 151 148 148 149 148 156
196 191 192 205 184 148 193 210 225 263 251 263 265 277 281 275 250 243 249 299 300 231 294 337 6 86 225 225 144 150 155 165 164 159 150 163 149 156 161 160 160 157 154 151 149 154 157 157 153 153 153 154 152 151
192 201 246 289 174 170 216 233 217 249 263 273 301 285 296 259 269 224 213 213 187 195 45 72 183 161 178 201 201 175 174 177 177 167 161 156 163 160 157 160 162 161 158 154 157 162 162 160 160 162 168 169 167 165
215 209 176 181 174 224 258 253 233 243 271 264 285 309 291 238 174 180 186 209 185 181 151 122 173 141 194 195 210 179 180 179 178 175 179 155 157 165 168 166 163 166 160 163 171 176 176 162 159 159 156 155 152 162
148 154 147 160 199 211 253 244 244 302 273 260 289 257 248 270 143 182 198 180 217 192 157 166 163 189 192 198 209 216 184 186 186 184 180 163 171 162 172 171 171 170 167 173 182 190 201 193 178 179 178 168 166 176
156 170 187 207 227 229 258 222 236 243 230 250 241 217 217 123 161 157 88 182 257 223 226 172 172 211 202 195 197 207 191 190 190 193 190 187 178 176 173 183 177 176 184 192 194 201 209 208 192 193 190 181 181 189
166 191 220 213 206 249 253 218 219 243 247 248 263 259 133 154 147 121 171 208 198 209 203 195 185 165 174 195 211 204 185 185 184 194 196 199 195 182 186 191 189 188 206 201 193 197 194 182 180 186 191 186 189 190
181 218 210 249 221 238 247 216 202 221 242 210 218 173 330 158 73 110 267 277 190 199 197 220 220 237 206 204 198 188 172 191 184 186 180 186 191 194 196 187 197 194 183 189 192 195 183 184 187 189 195 192 196 200
199 214 200 212 226 218 240 295 212 203 146 293 80 77 56 67 121 202 219 168 153 71 163 197 200 178 200 202 205 201 218 206 195 177 173 178 189 189 187 197 205 198 194 207 201 193 192 193 200 199 197 206 205 208
221 250 220 236 265 285 281 264 258 248 212 136 150 140 132 149 170 143 110 131 113 127 119 103 141 155 133 153 197 174 179 162 181 168 157 166 180 185 188 189 211 197 199 204 209 211 205 199 198 203 207 211 217 225
246 275 230 243 242 264 215 274 266 260 84 119 88 18 294 157 140 133 127 120 112 110 102 103 116 121 135 128 104 118 131 141 161 143 164 185 175 173 176 195 199 198 188 182 203 206 202 194 215 218 215 222 218 230
244 246 292 277 279 219 224 233 271 274 113 132 119 214 169 78 141 140 127 123 117 117 118 123 129 120 124 163 143 105 82 160 212 233 250 197 192 193 199 199 198 210 225 228 217 220 225 224 218 213 219 225 226 242
242 222 247 261 232 285 270 261 174 96 111 138 122 115 99 95 104 130 139 130 123 118 118 116 127 132 130 143 162 157 155 204 228 208 176 173 178 193 193 197 204 218 220 207 218 218 195 215 219 211 213 209 232 246
268 194 223 263 263 225 238 140 108 106 112 125 132 120 112 105 92 92 113 116 136 150 160 147 129 132 167 196 187 183 188 208 217 228 230 204 193 166 173 188 214 211 208 216 213 207 204 200 206 210 226 234 223 230
206 207 235 242 237 200 181 147 140 128 137 141 140 140 130 104 84 76 68 59 154 142 137 163 217 164 212 217 232 250 239 232 211 212 211 223 238 212 205 198 211 221 224 214 205 209 216 212 224 228 228 240 235 235
219 241 255 266 273 219 171 128 131 119 126 145 152 154 128 115 113 118 105 103 159 189 209 249 253 228 243 282 277 264 267 250 229 211 207 216 223 230 228 216 208 216 216 211 206 201 211 225 227 231 241 240 243 243